SL-8 DEB *

Satellite information

Favourite Embed

Satellite Type and Status

DEBRISIN ORBIT

Key statistics

Satellite SL-8 DEB * at a glance.

Uptime

18178

Days in orbit

Revolutions

≈ 14.8

Per day

Orbit

LEO

Low Earth Orbit

Inclination

74.0

Latest

Satellite identification and parameters

Extended collection of information and parameters for SL-8 DEB *.

Object identification

Identified? True

Debris? True

Object name: SL-8 DEB *

International designator: 1975-094E

Object number (NORAD): 14865

Object ID (CCSDS): 14865

Country: COMMONWEALTH OF INDEPENDENT STATES (CIS)

Current information (Y/N): Y

RCS size: SMALL

Orbital parameters

Period: 97.287 minutes

Inclination: 74.0194 deg

SMA: 7006.96 km

Apoapsis: 631.27 km

Periapsis: 626.379 km

RAAN: 144.7083 deg

Eccentricy: 0.000349

Argument of periapsis: 261.2847 deg

Mean anomaly: 162.1342 deg

Mean motion: 14.80158933 rev/day

Mean motion (dot): 0.00003294 rev/day2

B* drag term: 0.00043812 1/REarth

Two-line elements (TLE)

Creation date: July 6, 2025, 10:46 p.m.

Reference frame: TEME

Reference center: EARTH

Epoch: July 6, 2025, 9:49 p.m. UTC

TLE line 0: 0 SL-8 DEB *

TLE line 1: 1 14865U 75094E 25187.90947707 .00003294 00000-0 43812-3 0 9994

TLE line 2: 2 14865 74.0194 144.7083 0003490 261.2847 162.1342 14.80158933187405

Live tracking on map

Real-time ground track for satellite SL-8 DEB *.

In-orbit conjunctions

A list of the most updated potential collisions computed for object SL-8 DEB *.

Target Orbit TCA Probability of collision Miss distance Type
CZ-6A DEB LEO 2025-01-04 14:51:58 0.0001103326 163.0 (m) DEBRIS
CZ-6A DEB LEO 2024-12-03 19:57:52 0.0004646663 181.0 (m) DEBRIS

Associated space launch

Military communications satellite

SL-8 DEB * was lifted into orbit during the mission ‘Kosmos-3M | Strela-2M 10’, on board a Kosmos-3M space rocket.

The launch took place on Sept. 30, 1975, 6:37 p.m. from 132/1 (132L).

For more information about the launch, click the button.

Launch to space Kosmos-3M | Strela-2M 10
Kosmos-3M | Strela-2M 10

Agency: N/A

Status: Launch Successful

Launch date: Sept. 30, 1975, 6:37 p.m. UTC

Rocket: Kosmos-3M

Launch pad: 132/1 (132L)

Location: Plesetsk Cosmodrome, Russian Federation

...

Latest news about this satellite

There are no fresh news available about this satellite. Check back as we update our databases every day.


Newsletter sign-up

Weekly statistics, charts and insights to help you stay on top of the space industry.